This demonstration page uses our WeatherBlox Daily Observations layout. Learn more.

Hourly Observations for June 21, 2016

Temp ( °F °C ) Dew Point ( °F °C ) Humidity (%) Winds ( mph kmh ) Pressure ( in mb ) Visibility ( mi km ) Precip ( " mm )
12:15 am 00:15 Clear 66 18.8 56 13.6 72 72 ENE 6 9 30.12 1020 10 16.09344 0 0
12:35 am 00:35 Clear 66 18.7 57 13.7 73 73 ENE 7 11 30.09 1019 10 16.09344 0 0
12:55 am 00:55 Clear 65 18.5 57 13.8 74 74 ENE 7 11 30.09 1019 10 16.09344 0 0
1:15 am 01:15 Clear 65 18.1 57 13.8 76 76 NE 6 9 30.09 1019 10 16.09344 0 0
1:35 am 01:35 Clear 64 17.8 57 13.8 78 78 NE 6 9 30.09 1019 10 16.09344 0 0
1:55 am 01:55 Clear 64 17.6 56 13.5 77 77 NE 7 11 30.09 1019 10 16.09344 0 0
2:15 am 02:15 Clear 64 17.5 57 14 80 80 NE 7 11 30.09 1019 10 16.09344 0 0
2:35 am 02:35 Clear 64 17.5 57 14 80 80 NE 7 11 30.06 1018 10 16.09344 0 0
2:55 am 02:55 Clear 63 17.3 57 13.9 81 81 NE 6 9 30.06 1018 10 16.09344 0 0
3:15 am 03:15 Clear 63 17.2 57 14 82 82 NE 6 9 30.06 1018 10 16.09344 0 0
3:35 am 03:35 Clear 63 17 57 14 83 83 NE 6 9 30.09 1019 10 16.09344 0 0
3:55 am 03:55 Clear 62 16.8 57 14.1 84 84 NE 5 7 30.09 1019 10 16.09344 0 0
4:15 am 04:15 Clear 62 16.6 57 14.1 85 85 NE 6 9 30.09 1019 10 16.09344 0 0
4:35 am 04:35 Clear 62 16.6 57 14 85 85 ENE 5 7 30.09 1019 10 16.09344 0 0
4:55 am 04:55 Clear 62 16.5 57 14.1 86 86 ENE 6 9 30.06 1018 10 16.09344 0 0
5:15 am 05:15 Clear 61 16.3 57 14.1 87 87 ENE 6 9 30.06 1018 10 16.09344 0 0
5:35 am 05:35 Clear 61 16.2 57 14.1 87 87 ENE 6 9 30.06 1018 10 16.09344 0 0
5:55 am 05:55 Clear 61 16.3 58 14.2 87 87 E 7 11 30.06 1018 10 16.09344 0 0
6:15 am 06:15 Sunny 62 16.5 58 14.2 86 86 E 7 11 30.06 1018 10 16.09344 0 0
6:35 am 06:35 Sunny 63 17 58 14.2 84 84 E 8 13 30.03 1017 10 16.09344 0 0
6:55 am 06:55 Sunny 63 17.3 58 14.5 84 84 E 8 13 30.03 1017 10 16.09344 0 0
7:15 am 07:15 Sunny 64 18 58 14.6 81 81 E 9 15 30.03 1017 10 16.09344 0 0
7:35 am 07:35 Sunny 66 18.7 59 14.8 78 78 E 12 19 30.03 1017 10 16.09344 0 0
7:55 am 07:55 Sunny 67 19.3 59 15 76 76 E 14 22 30 1016 10 16.09344 0 0
8:15 am 08:15 Sunny 68 20 60 15.5 75 75 ESE 10 17 30 1016 10 16.09344 0 0
8:35 am 08:35 Sunny 69 20.8 61 16 74 74 ESE 10 17 29.97 1015 10 16.09344 0 0
8:55 am 08:55 Sunny 70 21.2 61 16.2 73 73 SE 12 19 29.97 1015 10 16.09344 0 0
9:15 am 09:15 Sunny 72 22 62 16.8 72 72 SE 9 15 29.97 1015 10 16.09344 0 0
9:35 am 09:35 Sunny 73 22.9 63 17.3 71 71 SE 7 11 29.97 1015 10 16.09344 0 0
9:55 am 09:55 Sunny 75 23.7 63 17.4 68 68 SE 8 13 29.94 1014 10 16.09344 0 0
10:15 am 10:15 Sunny 76 24.5 63 17.3 64 64 SE 9 15 29.94 1014 10 16.09344 0 0
10:35 am 10:35 Sunny 78 25.3 64 17.7 63 63 SSE 8 13 29.91 1013 10 16.09344 0 0
10:55 am 10:55 Sunny 80 26.5 63 17.3 57 57 S 8 13 29.91 1013 10 16.09344 0 0
11:15 am 11:15 Sunny 80 26.6 63 17.4 57 57 S 5 7 29.91 1013 10 16.09344 0 0
11:35 am 11:35 Sunny 81 27.4 64 17.8 56 56 S 6 9 29.88 1012 10 16.09344 0 0
11:55 am 11:55 Sunny 82 28 64 17.5 53 53 SSE 8 13 29.88 1012 10 16.09344 0 0
12:15 pm 12:15 Sunny 84 28.8 65 18.3 53 53 SE 12 19 29.85 1011 10 16.09344 0 0
12:35 pm 12:35 Sunny 85 29.5 65 18.1 50 50 SSE 9 15 29.85 1011 10 16.09344 0 0
12:55 pm 12:55 Sunny 86 30.2 65 18.3 49 49 SSE 9 15 29.85 1011 10 16.09344 0 0
1:15 pm 13:15 Sunny 87 30.8 65 18.1 47 47 S 12 19 29.83 1010 10 16.09344 0 0
1:35 pm 13:35 Sunny 89 31.6 64 17.8 44 44 S 7 11 29.8 1009 10 16.09344 0 0
1:55 pm 13:55 Sunny 91 32.6 64 18 42 42 S 12 19 29.8 1009 10 16.09344 0 0
2:15 pm 14:15 Sunny 92 33.5 63 17.3 38 38 S 12 19 29.8 1009 10 16.09344 0 0
2:35 pm 14:35 Sunny 93 33.8 62 16.8 36 36 S 14 22 29.77 1008 10 16.09344 0 0
2:55 pm 14:55 Sunny 94 34.5 62 16.5 34 34 S 13 20 29.74 1007 10 16.09344 0 0
3:15 pm 15:15 Sunny 95 35 59 15.1 30 30 S 17 28 29.74 1007 10 16.09344 0 0
3:35 pm 15:35 Sunny 96 35.3 61 16.2 32 32 S 14 22 29.71 1006 10 16.09344 0 0
3:55 pm 15:55 Sunny 97 35.9 59 14.9 28 28 S 13 20 29.71 1006 10 16.09344 0 0
4:15 pm 16:15 Sunny 97 36 58 14.5 28 28 S 16 26 29.71 1006 10 16.09344 0 0
4:35 pm 16:35 Sunny 98 36.5 55 12.7 24 24 SSW 18 30 29.68 1005 10 16.09344 0 0
4:55 pm 16:55 Sunny 98 36.5 55 12.7 24 24 SSW 14 22 29.68 1005 10 16.09344 0 0
5:15 pm 17:15 Sunny 98 36.5 56 13.1 24 24 SSW 14 22 29.68 1005 10 16.09344 0 0
5:35 pm 17:35 Sunny 98 36.5 55 12.9 24 24 S 14 22 29.65 1004 10 16.09344 0 0
5:55 pm 17:55 Sunny 97 36.3 55 12.9 24 24 S 15 24 29.65 1004 10 16.09344 0 0
6:15 pm 18:15 Sunny 97 36.1 57 14.1 27 27 S 10 17 29.62 1003 10 16.09344 0 0
6:35 pm 18:35 Sunny 95 35.1 59 15 30 30 S 14 22 29.62 1003 10 16.09344 0 0
6:55 pm 18:55 Sunny 94 34.6 59 14.8 30 30 S 12 19 29.62 1003 10 16.09344 0 0
7:15 pm 19:15 Sunny 93 34.1 59 14.8 31 31 S 14 22 29.59 1002 10 16.09344 0 0
7:35 pm 19:35 Sunny 92 33.6 58 14.6 32 32 S 14 22 29.59 1002 10 16.09344 0 0
7:55 pm 19:55 Sunny 91 32.9 58 14.6 33 33 S 12 19 29.59 1002 10 16.09344 0 0
8:15 pm 20:15 Sunny 90 32.1 58 14.5 34 34 S 13 20 29.62 1003 10 16.09344 0 0
8:35 pm 20:35 Sunny 89 31.7 56 13.6 33 33 S 12 19 29.62 1003 10 16.09344 0 0
8:55 pm 20:55 Sunny 87 30.8 56 13.5 35 35 S 15 24 29.62 1003 10 16.09344 0 0
9:15 pm 21:15 Clear 86 30.1 56 13.2 35 35 S 15 24 29.62 1003 10 16.09344 0 0
9:35 pm 21:35 Clear 86 29.8 56 13.5 37 37 S 15 24 29.62 1003 10 16.09344 0 0
9:55 pm 21:55 Clear 85 29.4 57 13.7 38 38 S 16 26 29.62 1003 10 16.09344 0 0
10:15 pm 22:15 Clear 84 28.7 57 14.1 41 41 S 14 22 29.62 1003 10 16.09344 0 0
10:35 pm 22:35 Clear 84 28.7 57 14.1 41 41 S 17 28 29.62 1003 10 16.09344 0 0
10:55 pm 22:55 Clear 84 28.7 57 14 41 41 S 17 28 29.62 1003 10 16.09344 0 0
11:15 pm 23:15 Clear 83 28.6 56 13.5 39 39 S 17 28 29.62 1003 10 16.09344 0 0
11:35 pm 23:35 Clear 83 28.5 56 13.2 39 39 SSW 20 31 29.62 1003 10 16.09344 0 0
11:55 pm 23:55 Clear 83 28.1 55 13 39 39 SSW 17 28 29.65 1004 10 16.09344 0 0

Powered by AerisWeather